Location: Newark
(45.9456°N, 15.4064°E)
Time: 15:00:25
(UTC+00:00)

SR - Pass Details

Date: 28 January 2020
Orbit: 575 x 880 km, 66.7° (Epoch: 26 February)

Event Time Altitude Azimuth Distance (km) Brightness Sun altitude
Rises 21:32:27 0° 239° (WSW) 3,432 - -55.5°
Reaches altitude 10° 21:35:05 10° 247° (WSW) 2,518 - -55.8°
Maximum altitude 21:40:32 38° 314° (NW) 1,325 - -56.5°
Drops below altitude 10° 21:46:01 10° 22° (NNE) 2,528 - -57.1°
Sets 21:48:41 0° 30° (NNE) 3,447 - -57.4°
